LXJ341 KTEB-KBED

Flight info

Callsign LXJ341
Flight time 0h 35m
Altitude 19000
Route BREZY V39 CMK MERIT HFD DREEM3
Aircraft E55P/M-SBDGRW/LB2

Departure

Time 2026-05-07 09:52
Airport Teterboro Airport (KTEB)

Arrival

Time 2026-05-07 10:27
Airport Laurence G Hanscom Field (KBED)
Time Latitude Longitude Altitude Speed Heading
2026-05-07 09:31 40.85385 -74.05552 8 ft 0 kts 24°
2026-05-07 09:32 40.85385 -74.05551 8 ft 0 kts 23°
2026-05-07 09:46 40.85400 -74.05547 8 ft 4 kts 356°
2026-05-07 09:46 40.85428 -74.05585 8 ft 7 kts 287°
2026-05-07 09:47 40.85445 -74.05657 8 ft 9 kts 270°
2026-05-07 09:47 40.85401 -74.05743 8 ft 13 kts 228°
2026-05-07 09:47 40.85332 -74.05845 7 ft 15 kts 230°
2026-05-07 09:47 40.85259 -74.05952 8 ft 16 kts 227°
2026-05-07 09:48 40.85183 -74.06063 7 ft 16 kts 220°
2026-05-07 09:48 40.85073 -74.06094 7 ft 16 kts 183°
2026-05-07 09:48 40.84957 -74.06104 7 ft 17 kts 183°
2026-05-07 09:48 40.84835 -74.06112 7 ft 18 kts 182°
2026-05-07 09:49 40.84707 -74.06122 8 ft 18 kts 184°
2026-05-07 09:49 40.84575 -74.06131 8 ft 18 kts 183°
2026-05-07 09:49 40.84447 -74.06140 8 ft 18 kts 183°
2026-05-07 09:49 40.84327 -74.06149 8 ft 16 kts 184°
2026-05-07 09:50 40.84209 -74.06158 7 ft 17 kts 183°
2026-05-07 09:50 40.84084 -74.06166 7 ft 18 kts 183°
2026-05-07 09:50 40.83976 -74.06174 7 ft 12 kts 182°
2026-05-07 09:50 40.83890 -74.06165 8 ft 11 kts 135°
2026-05-07 09:51 40.83881 -74.06069 7 ft 8 kts 90°
2026-05-07 09:51 40.83930 -74.06034 7 ft 10 kts
2026-05-07 09:51 40.84213 -74.06014 8 ft 82 kts
2026-05-07 09:51 40.85018 -74.05951 189 ft 135 kts
2026-05-07 09:52 40.85978 -74.05746 900 ft 156 kts 18°
2026-05-07 09:52 40.86959 -74.05039 1441 ft 170 kts 27°
2026-05-07 09:52 40.88020 -74.04166 1837 ft 185 kts 27°
2026-05-07 09:52 40.89212 -74.03706 1995 ft 177 kts 353°
2026-05-07 09:53 40.90243 -74.04485 1986 ft 179 kts 309°
2026-05-07 09:53 40.90507 -74.06111 2039 ft 189 kts 270°
2026-05-07 09:53 40.90321 -74.07855 2112 ft 192 kts 268°
2026-05-07 09:53 40.90152 -74.09551 2611 ft 190 kts 271°
2026-05-07 09:54 40.90008 -74.11365 3338 ft 208 kts 270°
2026-05-07 09:54 40.89864 -74.13298 4163 ft 220 kts 269°
2026-05-07 09:54 40.89738 -74.15282 5012 ft 216 kts 275°
2026-05-07 09:54 40.90290 -74.17069 5647 ft 216 kts 309°
2026-05-07 09:55 40.91614 -74.18087 5976 ft 232 kts 340°
2026-05-07 09:55 40.93277 -74.18220 6022 ft 248 kts 357°
2026-05-07 09:55 40.95034 -74.17970 6003 ft 258 kts
2026-05-07 09:55 40.96819 -74.17629 6015 ft 265 kts
2026-05-07 09:56 40.98654 -74.17244 6022 ft 270 kts
2026-05-07 09:56 41.00547 -74.16824 6030 ft 274 kts
2026-05-07 09:56 41.02439 -74.16421 6009 ft 277 kts
2026-05-07 09:56 41.04327 -74.16011 6009 ft 276 kts
2026-05-07 09:57 41.06213 -74.15592 6009 ft 274 kts
2026-05-07 09:57 41.08099 -74.15172 6273 ft 268 kts
2026-05-07 09:57 41.09891 -74.14774 6810 ft 260 kts
2026-05-07 09:57 41.11655 -74.14371 7572 ft 256 kts
2026-05-07 09:58 41.13403 -74.13996 8449 ft 263 kts
2026-05-07 09:58 41.15176 -74.13173 9249 ft 289 kts 28°
2026-05-07 09:58 41.16521 -74.11124 10054 ft 308 kts 63°
2026-05-07 09:58 41.17048 -74.08361 10882 ft 313 kts 85°
2026-05-07 09:59 41.17529 -74.05549 11774 ft 318 kts 74°
2026-05-07 09:59 41.18198 -74.02779 12560 ft 325 kts 75°
2026-05-07 09:59 41.18853 -73.99863 13171 ft 337 kts 75°
2026-05-07 09:59 41.19525 -73.96860 13905 ft 343 kts 76°
2026-05-07 10:00 41.20186 -73.93817 14695 ft 347 kts 76°
2026-05-07 10:00 41.20871 -73.90733 15438 ft 353 kts 76°
2026-05-07 10:00 41.21564 -73.87594 16141 ft 359 kts 75°
2026-05-07 10:00 41.22257 -73.84423 16828 ft 365 kts 74°
2026-05-07 10:01 41.22973 -73.81171 17478 ft 372 kts 74°
2026-05-07 10:01 41.23699 -73.77845 18106 ft 379 kts 73°
2026-05-07 10:01 41.24441 -73.74493 18615 ft 390 kts 73°
2026-05-07 10:01 41.25220 -73.70933 18843 ft 410 kts 74°
2026-05-07 10:02 41.26030 -73.67212 18882 ft 436 kts 73°
2026-05-07 10:02 41.26905 -73.63254 18890 ft 458 kts 74°
2026-05-07 10:02 41.27802 -73.59076 18901 ft 471 kts 74°
2026-05-07 10:02 41.28746 -73.54961 18897 ft 472 kts 73°
2026-05-07 10:03 41.29717 -73.50757 18896 ft 474 kts 73°
2026-05-07 10:03 41.30678 -73.46589 18899 ft 475 kts 73°
2026-05-07 10:03 41.31638 -73.42417 18894 ft 476 kts 73°
2026-05-07 10:03 41.32605 -73.38234 18899 ft 476 kts 73°
2026-05-07 10:04 41.33577 -73.34006 18894 ft 477 kts 74°
2026-05-07 10:04 41.34548 -73.29772 18880 ft 477 kts 75°
2026-05-07 10:04 41.35500 -73.25597 18882 ft 477 kts 73°
2026-05-07 10:04 41.36465 -73.21348 18883 ft 477 kts 74°
2026-05-07 10:05 41.37419 -73.17165 18883 ft 477 kts 73°
2026-05-07 10:05 41.38519 -73.12989 18864 ft 477 kts 63°
2026-05-07 10:05 41.40178 -73.09222 18887 ft 475 kts 57°
2026-05-07 10:05 41.41854 -73.05454 18884 ft 475 kts 56°
2026-05-07 10:06 41.43528 -73.01698 18882 ft 475 kts 57°
2026-05-07 10:06 41.45204 -72.97913 18878 ft 475 kts 58°
2026-05-07 10:06 41.46884 -72.94099 18879 ft 475 kts 57°
2026-05-07 10:06 41.48552 -72.90322 18819 ft 477 kts 58°
2026-05-07 10:07 41.50238 -72.86476 18460 ft 481 kts 58°
2026-05-07 10:07 41.51918 -72.82662 17968 ft 478 kts 57°
2026-05-07 10:07 41.53577 -72.78882 17443 ft 471 kts 58°
2026-05-07 10:07 41.55204 -72.75176 16923 ft 463 kts 59°
2026-05-07 10:08 41.56819 -72.71489 16444 ft 460 kts 58°
2026-05-07 10:08 41.58414 -72.67815 15961 ft 457 kts 59°
2026-05-07 10:08 41.60023 -72.64151 15482 ft 453 kts 59°
2026-05-07 10:08 41.61584 -72.60577 15107 ft 447 kts 60°
2026-05-07 10:09 41.63130 -72.56998 15047 ft 444 kts 59°
2026-05-07 10:09 41.64963 -72.53710 15023 ft 437 kts 40°
2026-05-07 10:09 41.67293 -72.51194 15018 ft 432 kts 35°
2026-05-07 10:09 41.69633 -72.48657 14815 ft 436 kts 35°
2026-05-07 10:10 41.71967 -72.46097 14354 ft 434 kts 35°
2026-05-07 10:10 41.74290 -72.43556 13817 ft 429 kts 35°
2026-05-07 10:10 41.76571 -72.41026 13295 ft 426 kts 36°
2026-05-07 10:10 41.78846 -72.38502 12770 ft 422 kts 37°
2026-05-07 10:11 41.81097 -72.36015 12247 ft 418 kts 36°
2026-05-07 10:11 41.83335 -72.33536 11706 ft 413 kts 37°
2026-05-07 10:11 41.85537 -72.31100 11183 ft 409 kts 36°
2026-05-07 10:11 41.87707 -72.28661 11049 ft 408 kts 37°
2026-05-07 10:12 41.89867 -72.26208 11027 ft 405 kts 37°
2026-05-07 10:12 41.92008 -72.23780 11022 ft 402 kts 37°
2026-05-07 10:12 41.94130 -72.21380 11022 ft 400 kts 37°
2026-05-07 10:12 41.96251 -72.18963 11018 ft 393 kts 37°
2026-05-07 10:13 41.98262 -72.16671 11012 ft 372 kts 37°
2026-05-07 10:13 42.00183 -72.14476 10883 ft 356 kts 37°
2026-05-07 10:13 42.02055 -72.12360 10506 ft 352 kts 37°
2026-05-07 10:13 42.03923 -72.10226 10086 ft 345 kts 36°
2026-05-07 10:14 42.05728 -72.08172 9680 ft 337 kts 36°
2026-05-07 10:14 42.07481 -72.06165 9261 ft 331 kts 37°
2026-05-07 10:14 42.09230 -72.04171 8835 ft 325 kts 36°
2026-05-07 10:14 42.10939 -72.02256 8410 ft 319 kts 34°
2026-05-07 10:15 42.12646 -72.00402 7980 ft 313 kts 34°
2026-05-07 10:15 42.14310 -71.98589 7551 ft 309 kts 34°
2026-05-07 10:15 42.15973 -71.96783 7114 ft 304 kts 35°
2026-05-07 10:15 42.17604 -71.94993 6683 ft 299 kts 34°
2026-05-07 10:16 42.19202 -71.93253 6292 ft 295 kts 34°
2026-05-07 10:16 42.20770 -71.91531 5914 ft 291 kts 34°
2026-05-07 10:16 42.22320 -71.89820 5549 ft 286 kts 34°
2026-05-07 10:16 42.23859 -71.88147 5191 ft 281 kts 34°
2026-05-07 10:17 42.25361 -71.86502 5034 ft 275 kts 34°
2026-05-07 10:17 42.26835 -71.84871 5021 ft 277 kts 34°
2026-05-07 10:17 42.28330 -71.83182 5015 ft 278 kts 35°
2026-05-07 10:17 42.29807 -71.81502 5016 ft 279 kts 34°
2026-05-07 10:18 42.31295 -71.79828 5015 ft 280 kts 34°
2026-05-07 10:18 42.32780 -71.78141 5009 ft 280 kts 34°
2026-05-07 10:18 42.34288 -71.76437 5007 ft 280 kts 35°
2026-05-07 10:18 42.35766 -71.74762 5009 ft 280 kts 34°
2026-05-07 10:19 42.37159 -71.72920 5009 ft 283 kts 42°
2026-05-07 10:19 42.38514 -71.70986 5005 ft 282 kts 41°
2026-05-07 10:19 42.39861 -71.69054 5005 ft 282 kts 41°
2026-05-07 10:19 42.41208 -71.67150 5013 ft 282 kts 42°
2026-05-07 10:20 42.42560 -71.65207 5000 ft 283 kts 40°
2026-05-07 10:20 42.43923 -71.63273 4922 ft 283 kts 41°
2026-05-07 10:20 42.45261 -71.61359 4730 ft 281 kts 43°
2026-05-07 10:20 42.46594 -71.59458 4495 ft 276 kts 41°
2026-05-07 10:21 42.47893 -71.57596 4268 ft 270 kts 41°
2026-05-07 10:21 42.49172 -71.55775 4039 ft 265 kts 41°
2026-05-07 10:21 42.50412 -71.53936 3803 ft 261 kts 49°
2026-05-07 10:21 42.51250 -71.51827 3575 ft 253 kts 62°
2026-05-07 10:22 42.51656 -71.49496 3229 ft 252 kts 81°
2026-05-07 10:22 42.51810 -71.47204 3003 ft 239 kts 81°
2026-05-07 10:22 42.51936 -71.44998 2769 ft 230 kts 82°
2026-05-07 10:22 42.51891 -71.42862 2552 ft 223 kts 91°
2026-05-07 10:23 42.51675 -71.40832 2414 ft 213 kts 95°
2026-05-07 10:23 42.51462 -71.38862 2220 ft 207 kts 94°
2026-05-07 10:23 42.51255 -71.36970 2076 ft 200 kts 94°
2026-05-07 10:23 42.51064 -71.35147 1946 ft 193 kts 93°
2026-05-07 10:24 42.50891 -71.33404 1835 ft 183 kts 94°
2026-05-07 10:24 42.50709 -71.31724 1743 ft 176 kts 95°
2026-05-07 10:24 42.50516 -71.30102 1614 ft 175 kts 96°
2026-05-07 10:24 42.50385 -71.28487 1615 ft 170 kts 94°
2026-05-07 10:25 42.50230 -71.26929 1619 ft 159 kts 95°
2026-05-07 10:25 42.50102 -71.25521 1511 ft 145 kts 92°
2026-05-07 10:25 42.49944 -71.24212 1381 ft 138 kts 106°
2026-05-07 10:25 42.49351 -71.23268 1257 ft 132 kts 163°
2026-05-07 10:26 42.48479 -71.23241 1122 ft 123 kts 195°
2026-05-07 10:26 42.47636 -71.23463 928 ft 124 kts 198°
2026-05-07 10:26 42.46969 -71.24056 743 ft 112 kts 245°
2026-05-07 10:26 42.46797 -71.25039 586 ft 105 kts 270°
2026-05-07 10:27 42.46817 -71.26012 417 ft 102 kts 277°
2026-05-07 10:27 42.46898 -71.26972 239 ft 103 kts 279°
2026-05-07 10:27 42.46985 -71.27902 122 ft 93 kts 278°
2026-05-07 10:27 42.47043 -71.28532 123 ft 43 kts 277°
2026-05-07 10:28 42.47066 -71.28847 125 ft 25 kts 272°
2026-05-07 10:28 42.47001 -71.29010 125 ft 20 kts 218°
2026-05-07 10:28 42.46891 -71.29069 125 ft 16 kts 138°
2026-05-07 10:28 42.46828 -71.28947 125 ft 16 kts 158°
2026-05-07 10:29 42.46729 -71.28890 125 ft 15 kts 157°
2026-05-07 10:29 42.46648 -71.28853 125 ft 3 kts 171°